Retour au catalogue

IO-86

ActifRadio amateurLEO
NORAD 40931·PAYLOAD·🇮🇩 Indonesia

Lancé Sep 28, 2015 depuis Satish Dhawan Space Centre

Loading…

Prochains Passages (prochaines 24 heures)

TLE

PériméSource: Tim BRIN PR Teksat

Époque: Aug 3, 2026, 07:32 UTC

1 40931U 00000    26215.31405093  .00000000  00000-0 -12415-2 0    07
2 40931   5.9978 192.1020 0013293 316.0159  40.6094 14.79250695 40639

Suivez IO-86 en temps réel avec AllMySat

Download on the App Store